TimeAKST,TemperatureF,Dew PointF,Humidity,Sea Level PressureIn,VisibilityMPH,Wind Direction,Wind SpeedMPH,Gust SpeedMPH,PrecipitationIn,Events,Conditions,WindDirDegrees,DateUTC
12:53 AM,14.0,3.9,64,29.58,10.0,North,13.8,-,N/A,,Mostly Cloudy,360,2013-12-20 09:53:00
1:53 AM,14.0,5.0,67,29.57,10.0,North,10.4,-,N/A,,Mostly Cloudy,350,2013-12-20 10:53:00
2:53 AM,15.1,6.1,68,29.57,10.0,North,3.5,-,N/A,,Mostly Cloudy,10,2013-12-20 11:53:00
3:53 AM,15.1,6.1,68,29.54,10.0,North,13.8,-,N/A,,Mostly Cloudy,350,2013-12-20 12:53:00
4:53 AM,15.1,6.1,68,29.52,10.0,North,8.1,-,N/A,,Overcast,350,2013-12-20 13:53:00
5:53 AM,16.0,6.1,65,29.52,10.0,Calm,Calm,-,N/A,,Overcast,0,2013-12-20 14:53:00
6:53 AM,16.0,7.0,68,29.51,10.0,North,5.8,-,N/A,,Overcast,350,2013-12-20 15:53:00
7:53 AM,15.1,9.0,77,29.51,8.0,NNW,3.5,-,0.00,Snow,Light Snow,330,2013-12-20 16:53:00
8:53 AM,15.1,10.0,80,29.50,4.0,North,4.6,-,0.00,Snow,Light Snow,10,2013-12-20 17:53:00
9:53 AM,15.1,10.9,84,29.49,6.0,NNW,10.4,-,0.01,Snow,Light Snow,340,2013-12-20 18:53:00
10:53 AM,16.0,10.9,81,29.47,8.0,NNE,9.2,-,0.00,Snow,Light Snow,20,2013-12-20 19:53:00
11:51 AM,17.6,12.2,79,29.46,10.0,NNE,9.2,-,0.00,,Overcast,20,2013-12-20 20:51:00
11:53 AM,17.1,10.9,77,29.46,10.0,NNE,10.4,-,0.00,,Overcast,20,2013-12-20 20:53:00
12:38 PM,17.6,10.4,73,29.45,10.0,North,10.4,-,N/A,,Overcast,10,2013-12-20 21:38:00
12:53 PM,17.1,10.9,77,29.45,10.0,NNE,8.1,-,N/A,,Overcast,20,2013-12-20 21:53:00
1:53 PM,17.1,12.0,81,29.44,9.0,NNE,9.2,-,0.00,Snow,Light Snow,20,2013-12-20 22:53:00
2:53 PM,18.0,12.0,78,29.42,5.0,NNE,8.1,-,0.00,Snow,Light Snow,20,2013-12-20 23:53:00
3:10 PM,17.6,12.2,79,29.42,1.8,North,5.8,-,0.00,Snow,Light Snow,10,2013-12-21 00:10:00
3:23 PM,17.6,14.0,86,29.41,1.2,North,4.6,-,0.01,Snow,Light Snow,350,2013-12-21 00:23:00
3:53 PM,17.1,15.1,92,29.41,1.2,North,5.8,-,0.02,Snow,Light Snow,350,2013-12-21 00:53:00
4:27 PM,17.6,15.8,93,29.39,2.5,North,8.1,-,0.01,Snow,Light Snow,350,2013-12-21 01:27:00
4:45 PM,17.6,15.8,93,29.38,3.0,North,10.4,-,0.01,Snow,Light Snow,350,2013-12-21 01:45:00
4:51 PM,17.6,15.8,93,29.38,2.5,North,9.2,-,0.01,Snow,Light Snow,350,2013-12-21 01:51:00
4:53 PM,17.1,15.1,92,29.38,3.0,North,8.1,-,0.01,Snow,Light Snow,360,2013-12-21 01:53:00
5:45 PM,17.6,15.8,93,29.37,3.0,North,8.1,-,0.02,Snow,Light Snow,350,2013-12-21 02:45:00
5:53 PM,18.0,15.1,88,29.37,3.0,North,5.8,-,0.02,Snow,Light Snow,350,2013-12-21 02:53:00
6:04 PM,17.6,15.8,93,29.36,3.0,North,6.9,-,0.00,Snow,Light Snow,350,2013-12-21 03:04:00
6:12 PM,17.6,15.8,93,29.36,3.0,North,8.1,-,0.00,Snow,Light Snow,350,2013-12-21 03:12:00
6:19 PM,17.6,15.8,93,29.36,3.0,North,6.9,-,0.00,Snow,Light Snow,350,2013-12-21 03:19:00
6:36 PM,17.6,15.8,93,29.35,3.0,North,8.1,-,0.01,Snow,Light Snow,350,2013-12-21 03:36:00
6:53 PM,18.0,16.0,92,29.36,3.0,North,8.1,-,0.01,Snow,Light Snow,350,2013-12-21 03:53:00
7:53 PM,18.0,16.0,92,29.34,3.0,NNW,8.1,-,0.05,Snow,Light Snow,330,2013-12-21 04:53:00
8:53 PM,18.0,15.1,88,29.34,10.0,NNW,8.1,-,0.14,,Overcast,330,2013-12-21 05:53:00
9:53 PM,19.0,16.0,88,29.32,9.0,NNW,6.9,-,0.03,Snow,Light Snow,340,2013-12-21 06:53:00
10:51 PM,19.4,17.6,93,29.30,2.5,North,9.2,-,0.01,Snow,Light Snow,350,2013-12-21 07:51:00
10:53 PM,19.0,17.1,92,29.30,2.0,North,9.2,-,0.01,Snow,Light Snow,350,2013-12-21 07:53:00
11:15 PM,19.4,17.6,93,29.29,1.5,North,6.9,-,0.01,Snow,Light Snow,350,2013-12-21 08:15:00
11:21 PM,19.4,17.6,93,29.30,1.2,NNW,5.8,-,0.01,Snow,Light Snow,340,2013-12-21 08:21:00
11:48 PM,19.4,17.6,93,29.30,2.0,NNW,9.2,-,0.03,Snow,Light Snow,340,2013-12-21 08:48:00
11:53 PM,19.0,18.0,96,29.30,2.0,NNW,10.4,-,0.03,Snow,Light Snow,340,2013-12-21 08:53:00